Hourly Weather Roundup
Issued by NWS Central Illinois

Home | Current Version | Previous Version | Text Only | Print | Product List | Glossary On
Versions: 1 2 3 4 5 6 7 8 9 10 11 12 13 14 15 16 17 18 19 20 21 22 23 24 25 26 27 28 29 30 31 32 33 34 35 36 37 38 39 40 41 42 43 44 45 46 47 48 49 50
000
NZUS43 KILX 191810
HWRILX

AREA WEATHER ROUNDUP
NATIONAL WEATHER SERVICE, LINCOLN IL
1200 PM CST FRI DEC 19 2014


CITY           SKY/WX    TMP DP  RH WIND       PRES   REMARKS
BLOOMINGTON    SUNNY     29  21  71 CALM      30.29F
6HR MIN TEMP:  18; 6HR MAX TEMP:  30;

CHAMPAIGN      SUNNY     31  21  66 CALM      30.29F
6HR MIN TEMP:  16; 6HR MAX TEMP:  32;

DECATUR        SUNNY     32  24  72 E6        30.30F WCI  26
6HR MIN TEMP:  18; 6HR MAX TEMP:  33;

FLORA          SUNNY     33  25  71 CALM      30.29F
6HR MIN TEMP:  25; 6HR MAX TEMP:  33;

GALESBURG      SUNNY     31  21  65 N3        30.29F
JACKSONVILLE   CLOUDY    34  25  71 CALM      30.30F
6HR MIN TEMP:  29; 6HR MAX TEMP:  34;

LACON          MOSUNNY   29  20  68 CALM      30.29F
6HR MIN TEMP:  13; 6HR MAX TEMP:  30;

LAWRENCEVILLE  MOSUNNY   34  24  67 CALM      30.30F
6HR MIN TEMP:  24; 6HR MAX TEMP:  35;

LITCHFIELD     CLOUDY    32  22  67 CALM      30.29F
$$


CITY           SKY/WX    TMP DP  RH WIND       PRES   REMARKS
LINCOLN        SUNNY     32  25  74 S3        30.32F
6HR MIN TEMP:  18; 6HR MAX TEMP:  32;

MACOMB         SUNNY     32  24  73 E3        30.32F
MATTOON        SUNNY     32  22  66 NE6       30.29F WCI  26
6HR MIN TEMP:  20; 6HR MAX TEMP:  32;

MT CARMEL AP   MOSUNNY   36  25  64 E3        30.29F
OLNEY-NOBLE AP SUNNY     32  25  74 CALM      30.30F
PARIS          SUNNY     32  24  72 CALM      30.30F
6HR MIN TEMP:  19; 6HR MAX TEMP:  32;

PEORIA         SUNNY     32  19  58 E3        30.30F
6HR MIN TEMP:  18; 6HR MAX TEMP:  33;

PONTIAC        SUNNY     31  24  74 CALM      30.30F
RANTOUL        SUNNY     32  24  71 CALM      30.29F
6HR MIN TEMP:  19; 6HR MAX TEMP:  32;

ROBINSON       SUNNY     33  23  67 CALM      30.32F
6HR MIN TEMP:  22; 6HR MAX TEMP:  33;

SPRINGFIELD    CLOUDY    35  22  58 E3        30.30F
6HR MIN TEMP:  23; 6HR MAX TEMP:  35;

TAYLORVILLE    SUNNY     32  23  69 N5        30.29F WCI  27
$$

...REGIONAL REPORTS...


CITY           SKY/WX    TMP DP  RH WIND       PRES   REMARKS
CHICAGO O`HARE CLOUDY    31  21  66 N3        30.29F
KANKAKEE       CLOUDY    30  25  81 CALM      30.29F
MOLINE         SUNNY     30  19  63 E3        30.30F
MOUNT VERNON   CLOUDY    36  23  60 E5        30.29F WCI  32
PITTSFIELD     CLOUDY    33  26  77 CALM      30.30F
QUINCY         CLOUDY    32  23  69 E3        30.28F
ROCKFORD       CLOUDY    28  21  75 CALM      30.32F
$$


CITY           SKY/WX    TMP DP  RH WIND       PRES   REMARKS
BURLINGTON     CLOUDY    31  22  69 CALM      30.29F
CEDAR RAPIDS   CLOUDY    29  21  72 SE6       30.27F WCI  23
DES MOINES     CLOUDY    32  27  81 S8        30.25F WCI  25
KIRKSVILLE     CLOUDY    31  28  89 SE3       30.27F FOG
OTTUMWA        CLOUDY    30  24  78 SE5       30.25F WCI  25
ST LOUIS       CLOUDY    37  27  67 CALM      30.29F
$$


CITY           SKY/WX    TMP DP  RH WIND       PRES   REMARKS
TERRE HAUTE    SUNNY     33  23  66 CALM      30.30F
EVANSVILLE     PTSUNNY   35  24  64 VRB3      30.30F
INDIANAPOLIS   CLOUDY    27  22  81 SW3       30.27F
LAFAYETTE      CLOUDY    27  25  92 CALM      30.29F
MADISON        CLOUDY    26  19  74 CALM      30.29F
MILWAUKEE      CLOUDY    30  18  60 SW7       30.29F WCI  23
$$





USA.gov is the U.S. government's official web portal to all federal, state and local government web resources and services.